• In Österreich
  • Länderverzeichnis
  • Für 7 Tage
  • Wassertemperatur
  • Satellitenkarten
  • Wetterkarte
  • News
  • Widgets
  • user-avatar
    Anmelden

    Stündliche Wetter Kazanky

    Heute, 18 Juli, Mittwoch

    Zeit Temperatur Niederschläge Wind Luftdruck Luftfeuchtigkeit
    00:00 +20°C° 0,1 mm 3 m/S 736 mmHg 77%
    01:00 +20°C° 0,1 mm 3 m/S 736 mmHg 77%
    02:00 +20°C° 0 mm 3 m/S 736 mmHg 78%
    03:00 +20°C° 0,2 mm 3 m/S 736 mmHg 79%
    04:00 +20°C° 0,2 mm 3 m/S 736 mmHg 80%
    05:00 +20°C° 0,2 mm 2 m/S 736 mmHg 81%
    06:00 +22°C° 0,1 mm 3 m/S 736 mmHg 73%
    07:00 +25°C° 0,1 mm 3 m/S 736 mmHg 65%
    08:00 +27°C° 0,1 mm 3 m/S 736 mmHg 57%
    09:00 +28°C° 0,2 mm 3 m/S 736 mmHg 54%
    10:00 +29°C° 0,2 mm 4 m/S 736 mmHg 50%
    11:00 +30°C° 0,2 mm 4 m/S 736 mmHg 47%
    12:00 +30°C° 0,2 mm 4 m/S 735 mmHg 48%
    13:00 +30°C° 0,2 mm 4 m/S 735 mmHg 48%
    14:00 +30°C° 0,2 mm 5 m/S 735 mmHg 49%
    15:00 +29°C° 0,4 mm 4 m/S 735 mmHg 52%
    16:00 +28°C° 0,4 mm 4 m/S 735 mmHg 55%
    17:00 +28°C° 0,4 mm 3 m/S 735 mmHg 59%
    18:00 +26°C° 0,6 mm 3 m/S 735 mmHg 64%
    19:00 +25°C° 0,6 mm 3 m/S 735 mmHg 70%
    20:00 +24°C° 0,6 mm 2 m/S 735 mmHg 75%
    21:00 +23°C° 0,5 mm 2 m/S 735 mmHg 77%
    22:00 +23°C° 0,5 mm 2 m/S 735 mmHg 79%
    23:00 +21°C° 0,5 mm 2 m/S 735 mmHg 82%

    Morgen, 19 Juli, Donnerstag

    Zeit Temperatur Niederschläge Wind Luftdruck Luftfeuchtigkeit
    00:00 +21°C° 0,2 mm 2 m/S 735 mmHg 82%
    01:00 +21°C° 0,2 mm 2 m/S 735 mmHg 83%
    02:00 +20°C° 0,2 mm 2 m/S 734 mmHg 83%
    03:00 +20°C° 0,1 mm 2 m/S 734 mmHg 83%
    04:00 +20°C° 0,1 mm 2 m/S 734 mmHg 83%
    05:00 +21°C° 0,1 mm 1 m/S 734 mmHg 83%
    06:00 +23°C° 0,1 mm 1 m/S 735 mmHg 74%
    07:00 +25°C° 0,1 mm 1 m/S 735 mmHg 66%
    08:00 +27°C° 0,1 mm 1 m/S 735 mmHg 57%
    09:00 +28°C° 0,2 mm 1 m/S 735 mmHg 53%
    10:00 +29°C° 0,2 mm 2 m/S 735 mmHg 49%
    11:00 +30°C° 0,2 mm 2 m/S 736 mmHg 46%
    12:00 +30°C° 0,4 mm 3 m/S 736 mmHg 46%
    13:00 +30°C° 0,4 mm 3 m/S 736 mmHg 47%
    14:00 +30°C° 0,4 mm 3 m/S 736 mmHg 47%
    15:00 +30°C° 0,3 mm 3 m/S 736 mmHg 50%
    16:00 +29°C° 0,3 mm 3 m/S 736 mmHg 53%
    17:00 +28°C° 0,3 mm 3 m/S 736 mmHg 56%
    18:00 +27°C° 0,6 mm 3 m/S 736 mmHg 62%
    19:00 +25°C° 0,6 mm 2 m/S 736 mmHg 67%
    20:00 +24°C° 0,6 mm 2 m/S 736 mmHg 73%
    21:00 +23°C° 0,3 mm 2 m/S 736 mmHg 75%
    22:00 +23°C° 0,3 mm 1 m/S 736 mmHg 77%
    23:00 +22°C° 0,3 mm 1 m/S 736 mmHg 79%

    übermorgen, 20 Juli, Freitag

    Zeit Temperatur Niederschläge Wind Luftdruck Luftfeuchtigkeit
    00:00 +22°C° 0,1 mm 1 m/S 736 mmHg 79%
    01:00 +22°C° 0,1 mm 1 m/S 736 mmHg 80%
    02:00 +22°C° 0,1 mm 1 m/S 736 mmHg 81%
    03:00 +22°C° 0 mm 1 m/S 736 mmHg 81%
    04:00 +22°C° 0 mm 1 m/S 736 mmHg 81%
    05:00 +22°C° 0 mm 1 m/S 736 mmHg 81%
    06:00 +24°C° 0 mm 2 m/S 736 mmHg 73%
    07:00 +26°C° 0 mm 2 m/S 736 mmHg 66%
    08:00 +28°C° 0 mm 2 m/S 737 mmHg 58%
    09:00 +29°C° 0,1 mm 2 m/S 737 mmHg 54%
    10:00 +30°C° 0,1 mm 3 m/S 737 mmHg 51%
    11:00 +31°C° 0,1 mm 3 m/S 737 mmHg 47%
    12:00 +32°C° 0,3 mm 4 m/S 737 mmHg 48%
    13:00 +32°C° 0,3 mm 4 m/S 737 mmHg 48%
    14:00 +32°C° 0,3 mm 5 m/S 737 mmHg 49%
    15:00 +30°C° 0,1 mm 5 m/S 737 mmHg 51%
    16:00 +30°C° 0,1 mm 5 m/S 737 mmHg 53%
    17:00 +29°C° 0,1 mm 5 m/S 737 mmHg 56%
    18:00 +27°C° 0 mm 4 m/S 737 mmHg 63%
    19:00 +26°C° 0 mm 3 m/S 737 mmHg 70%
    20:00 +24°C° 0 mm 3 m/S 737 mmHg 77%
    21:00 +24°C° 0 mm 3 m/S 737 mmHg 80%
    22:00 +24°C° 0 mm 3 m/S 737 mmHg 83%
    23:00 +22°C° 0 mm 3 m/S 737 mmHg 86%

    21 Juli, Samstag

    Zeit Temperatur Niederschläge Wind Luftdruck Luftfeuchtigkeit
    00:00 +22°C° 0 mm 3 m/S 737 mmHg 87%
    01:00 +23°C° 0 mm 2 m/S 737 mmHg 87%
    02:00 +23°C° 0 mm 2 m/S 737 mmHg 88%
    03:00 +23°C° 0 mm 2 m/S 737 mmHg 87%
    04:00 +23°C° 0 mm 2 m/S 737 mmHg 87%
    05:00 +23°C° 0 mm 2 m/S 737 mmHg 86%
    06:00 +25°C° 0,1 mm 2 m/S 737 mmHg 77%
    07:00 +27°C° 0,1 mm 2 m/S 738 mmHg 68%
    08:00 +28°C° 0,1 mm 2 m/S 738 mmHg 59%
    09:00 +29°C° 0,2 mm 3 m/S 738 mmHg 56%
    10:00 +30°C° 0,2 mm 3 m/S 738 mmHg 53%
    11:00 +31°C° 0,2 mm 3 m/S 738 mmHg 50%
    12:00 +31°C° 0,4 mm 3 m/S 738 mmHg 52%
    13:00 +30°C° 0,4 mm 4 m/S 738 mmHg 54%
    14:00 +30°C° 0,4 mm 4 m/S 738 mmHg 56%
    15:00 +30°C° 0,4 mm 4 m/S 738 mmHg 58%
    16:00 +29°C° 0,4 mm 4 m/S 738 mmHg 60%
    17:00 +29°C° 0,4 mm 3 m/S 738 mmHg 62%
    18:00 +28°C° 0,2 mm 3 m/S 738 mmHg 68%
    19:00 +26°C° 0,2 mm 3 m/S 738 mmHg 73%
    20:00 +25°C° 0,2 mm 3 m/S 738 mmHg 79%
    21:00 +25°C° 0,2 mm 2 m/S 738 mmHg 81%
    22:00 +24°C° 0,2 mm 2 m/S 738 mmHg 84%
    23:00 +24°C° 0,2 mm 2 m/S 738 mmHg 86%

    22 Juli, Sonntag

    Zeit Temperatur Niederschläge Wind Luftdruck Luftfeuchtigkeit
    00:00 +23°C° 0,1 mm 2 m/S 738 mmHg 87%
    01:00 +23°C° 0,1 mm 2 m/S 738 mmHg 88%
    02:00 +23°C° 0,1 mm 2 m/S 738 mmHg 89%
    03:00 +23°C° 0 mm 2 m/S 738 mmHg 89%
    04:00 +23°C° 0 mm 2 m/S 738 mmHg 88%
    05:00 +23°C° 0 mm 2 m/S 738 mmHg 88%
    06:00 +25°C° 0,1 mm 2 m/S 738 mmHg 79%
    07:00 +26°C° 0,1 mm 2 m/S 738 mmHg 71%
    08:00 +28°C° 0,1 mm 2 m/S 738 mmHg 62%
    09:00 +29°C° 0,4 mm 2 m/S 738 mmHg 58%
    10:00 +30°C° 0,4 mm 3 m/S 738 mmHg 55%
    11:00 +31°C° 0,4 mm 3 m/S 738 mmHg 52%
    12:00 +31°C° 0,8 mm 3 m/S 738 mmHg 53%
    13:00 +32°C° 0,8 mm 4 m/S 738 mmHg 54%
    14:00 +32°C° 0,8 mm 4 m/S 738 mmHg 55%
    15:00 +30°C° 0,7 mm 4 m/S 738 mmHg 57%
    16:00 +29°C° 0,7 mm 4 m/S 738 mmHg 60%
    17:00 +29°C° 0,7 mm 3 m/S 738 mmHg 62%
    18:00 +28°C° 0,3 mm 3 m/S 738 mmHg 67%
    19:00 +26°C° 0,3 mm 3 m/S 738 mmHg 71%
    20:00 +25°C° 0,3 mm 2 m/S 738 mmHg 76%
    21:00 +24°C° 0,1 mm 2 m/S 738 mmHg 78%
    22:00 +24°C° 0,1 mm 2 m/S 738 mmHg 80%
    23:00 +23°C° 0,1 mm 2 m/S 738 mmHg 82%

    23 Juli, Montag

    Zeit Temperatur Niederschläge Wind Luftdruck Luftfeuchtigkeit
    00:00 +23°C° 0 mm 2 m/S 737 mmHg 83%
    01:00 +23°C° 0 mm 2 m/S 737 mmHg 83%
    02:00 +22°C° 0 mm 1 m/S 737 mmHg 84%
    03:00 +22°C° 0 mm 1 m/S 737 mmHg 83%
    04:00 +22°C° 0 mm 1 m/S 737 mmHg 82%
    05:00 +22°C° 0 mm 1 m/S 737 mmHg 82%
    06:00 +24°C° 0 mm 1 m/S 737 mmHg 74%
    07:00 +26°C° 0 mm 1 m/S 738 mmHg 66%
    08:00 +28°C° 0 mm 1 m/S 738 mmHg 58%
    09:00 +29°C° 0,1 mm 1 m/S 738 mmHg 54%
    10:00 +31°C° 0,1 mm 1 m/S 738 mmHg 50%
    11:00 +32°C° 0,1 mm 2 m/S 738 mmHg 47%
    12:00 +32°C° 0,3 mm 2 m/S 737 mmHg 47%
    13:00 +33°C° 0,3 mm 3 m/S 737 mmHg 47%
    14:00 +33°C° 0,3 mm 3 m/S 737 mmHg 47%
    15:00 +31°C° 0,2 mm 3 m/S 737 mmHg 48%
    16:00 +31°C° 0,2 mm 3 m/S 737 mmHg 50%
    17:00 +31°C° 0,2 mm 3 m/S 737 mmHg 51%
    18:00 +29°C° 0,1 mm 2 m/S 737 mmHg 57%
    19:00 +28°C° 0,1 mm 2 m/S 737 mmHg 62%
    20:00 +26°C° 0,1 mm 2 m/S 737 mmHg 67%
    21:00 +25°C° 0,1 mm 2 m/S 737 mmHg 70%
    22:00 +25°C° 0,1 mm 1 m/S 737 mmHg 73%
    23:00 +24°C° 0,1 mm 1 m/S 737 mmHg 75%
    Mehr zeigen